Location: Dehesa de la Cepeda
(40.6574°N, 4.3013°W)
Time: 02:59:48
(UTC+00:00)

Courier 1B - Pass Details

Date: 05 August 2021
Orbit: 963 x 1209 km, 28.3° (Epoch: 17 September)

Event Time Altitude Azimuth Distance (km) Brightness Sun altitude
Rises 16:55:51 0° 223° (SW) 4,027 11.3 27.3°
Reaches altitude 10° 16:59:19 10° 209° (SSW) 3,096 10.6 26.6°
Maximum altitude 17:05:01 23° 161° (SSE) 2,314 9.5 25.5°
Drops below altitude 10° 17:10:49 10° 114° (ESE) 3,142 9.7 24.4°
Sets 17:14:21 0° 100° (E) 4,102 10.2 23.8°
